EN

Hourly Weather Troits'ke

Today, 16 April, Friday

Time Temperature Precipitation Wind Pressure Humidity
00:00 +4°C° 0.1 mm 4 mps 760 mmHg 90%
01:00 +4°C° 0.1 mm 4 mps 760 mmHg 91%
02:00 +4°C° 0.1 mm 4 mps 760 mmHg 92%
03:00 +4°C° 0 mm 4 mps 760 mmHg 90%
04:00 +4°C° 0 mm 4 mps 760 mmHg 89%
05:00 +4°C° 0 mm 4 mps 760 mmHg 88%
06:00 +4°C° 0.1 mm 4 mps 760 mmHg 86%
07:00 +4°C° 0.1 mm 4 mps 760 mmHg 85%
08:00 +4°C° 0.1 mm 4 mps 760 mmHg 83%
09:00 +5°C° 0 mm 5 mps 761 mmHg 78%
10:00 +6°C° 0 mm 5 mps 761 mmHg 74%
11:00 +7°C° 0 mm 6 mps 761 mmHg 69%
12:00 +7°C° 0 mm 5 mps 761 mmHg 64%
13:00 +8°C° 0 mm 5 mps 761 mmHg 60%
14:00 +8°C° 0 mm 5 mps 761 mmHg 55%
15:00 +9°C° 0 mm 5 mps 761 mmHg 53%
16:00 +10°C° 0 mm 4 mps 761 mmHg 50%
17:00 +11°C° 0 mm 3 mps 761 mmHg 48%
18:00 +9°C° 0 mm 3 mps 761 mmHg 54%
19:00 +8°C° 0 mm 2 mps 761 mmHg 60%
20:00 +7°C° 0 mm 2 mps 762 mmHg 66%
21:00 +7°C° 0 mm 2 mps 762 mmHg 70%
22:00 +5°C° 0 mm 3 mps 762 mmHg 75%
23:00 +5°C° 0 mm 3 mps 762 mmHg 79%

Tomorrow, 17 April, Saturday

Time Temperature Precipitation Wind Pressure Humidity
00:00 +4°C° 0 mm 3 mps 762 mmHg 76%
01:00 +5°C° 0 mm 2 mps 762 mmHg 74%
02:00 +5°C° 0 mm 2 mps 762 mmHg 71%
03:00 +4°C° 0 mm 2 mps 762 mmHg 70%
04:00 +5°C° 0 mm 1 mps 763 mmHg 70%
05:00 +5°C° 0 mm 1 mps 763 mmHg 69%
06:00 +7°C° 0 mm 1 mps 763 mmHg 63%
07:00 +7°C° 0 mm 2 mps 763 mmHg 57%
08:00 +9°C° 0 mm 2 mps 763 mmHg 51%
09:00 +11°C° 0 mm 3 mps 763 mmHg 47%
10:00 +12°C° 0 mm 3 mps 763 mmHg 43%
11:00 +14°C° 0 mm 3 mps 763 mmHg 39%
12:00 +14°C° 0 mm 4 mps 763 mmHg 38%
13:00 +15°C° 0 mm 4 mps 763 mmHg 37%
14:00 +15°C° 0 mm 4 mps 762 mmHg 36%
15:00 +15°C° 0 mm 4 mps 762 mmHg 38%
16:00 +14°C° 0 mm 5 mps 762 mmHg 40%
17:00 +13°C° 0 mm 5 mps 762 mmHg 43%
18:00 +12°C° 0 mm 5 mps 762 mmHg 50%
19:00 +10°C° 0 mm 4 mps 763 mmHg 58%
20:00 +8°C° 0 mm 3 mps 763 mmHg 65%
21:00 +8°C° 0 mm 3 mps 763 mmHg 68%
22:00 +8°C° 0 mm 2 mps 762 mmHg 72%
23:00 +8°C° 0 mm 2 mps 762 mmHg 75%

Day after tomorrow, 18 April, Sunday

Time Temperature Precipitation Wind Pressure Humidity
00:00 +7°C° 0 mm 2 mps 762 mmHg 76%
01:00 +7°C° 0 mm 2 mps 762 mmHg 77%
02:00 +8°C° 0 mm 1 mps 762 mmHg 78%
03:00 +8°C° 0 mm 1 mps 762 mmHg 79%
04:00 +8°C° 0 mm 1 mps 762 mmHg 80%
05:00 +7°C° 0 mm 1 mps 762 mmHg 80%
06:00 +8°C° 0 mm 2 mps 762 mmHg 74%
07:00 +9°C° 0 mm 2 mps 762 mmHg 67%
08:00 +10°C° 0 mm 2 mps 762 mmHg 61%
09:00 +11°C° 0 mm 3 mps 761 mmHg 56%
10:00 +12°C° 0 mm 4 mps 761 mmHg 51%
11:00 +14°C° 0 mm 4 mps 761 mmHg 46%
12:00 +14°C° 0 mm 4 mps 760 mmHg 43%
13:00 +14°C° 0 mm 4 mps 760 mmHg 39%
14:00 +15°C° 0 mm 5 mps 760 mmHg 36%
15:00 +14°C° 0 mm 4 mps 760 mmHg 42%
16:00 +13°C° 0 mm 4 mps 760 mmHg 48%
17:00 +12°C° 0 mm 3 mps 760 mmHg 54%
18:00 +11°C° 0.2 mm 3 mps 760 mmHg 63%
19:00 +10°C° 0.2 mm 2 mps 760 mmHg 72%
20:00 +10°C° 0.2 mm 1 mps 760 mmHg 82%
21:00 +10°C° 0.5 mm 1 mps 760 mmHg 85%
22:00 +10°C° 0.5 mm 1 mps 760 mmHg 88%
23:00 +9°C° 0.5 mm 2 mps 759 mmHg 91%

19 April, Monday

Time Temperature Precipitation Wind Pressure Humidity
00:00 +9°C° 0.2 mm 2 mps 759 mmHg 92%
01:00 +9°C° 0.2 mm 2 mps 759 mmHg 92%
02:00 +9°C° 0.2 mm 2 mps 759 mmHg 93%
03:00 +9°C° 0 mm 2 mps 758 mmHg 92%
04:00 +9°C° 0 mm 3 mps 758 mmHg 91%
05:00 +9°C° 0 mm 3 mps 758 mmHg 90%
06:00 +9°C° 0 mm 3 mps 758 mmHg 89%
07:00 +9°C° 0 mm 3 mps 758 mmHg 87%
08:00 +10°C° 0 mm 3 mps 757 mmHg 86%
09:00 +10°C° 0 mm 3 mps 757 mmHg 82%
10:00 +11°C° 0 mm 4 mps 757 mmHg 79%
11:00 +11°C° 0 mm 4 mps 756 mmHg 76%
12:00 +10°C° 0 mm 5 mps 755 mmHg 76%
13:00 +12°C° 0 mm 5 mps 755 mmHg 76%
14:00 +12°C° 0 mm 5 mps 754 mmHg 75%
15:00 +10°C° 0.4 mm 6 mps 753 mmHg 78%
16:00 +10°C° 0.4 mm 6 mps 752 mmHg 81%
17:00 +9°C° 0.4 mm 6 mps 752 mmHg 84%
18:00 +9°C° 2.5 mm 6 mps 751 mmHg 87%
19:00 +8°C° 2.5 mm 7 mps 750 mmHg 90%
20:00 +8°C° 2.5 mm 7 mps 750 mmHg 93%
21:00 +7°C° 2.8 mm 8 mps 748 mmHg 93%
22:00 +7°C° 2.8 mm 9 mps 747 mmHg 93%
23:00 +6°C° 2.8 mm 9 mps 746 mmHg 94%

20 April, Tuesday

Time Temperature Precipitation Wind Pressure Humidity
00:00 +6°C° 2.2 mm 10 mps 746 mmHg 93%
01:00 +6°C° 2.2 mm 10 mps 745 mmHg 92%
02:00 +6°C° 2.2 mm 11 mps 744 mmHg 92%
03:00 +6°C° 2.2 mm 11 mps 745 mmHg 91%
04:00 +6°C° 2.2 mm 11 mps 745 mmHg 90%
05:00 +6°C° 2.2 mm 11 mps 745 mmHg 89%
06:00 +6°C° 0.7 mm 11 mps 746 mmHg 86%
07:00 +6°C° 0.7 mm 11 mps 747 mmHg 84%
08:00 +6°C° 0.7 mm 11 mps 748 mmHg 82%
09:00 +7°C° 0 mm 11 mps 748 mmHg 75%
10:00 +9°C° 0 mm 11 mps 749 mmHg 68%
11:00 +11°C° 0 mm 11 mps 750 mmHg 61%
12:00 +12°C° 0 mm 11 mps 751 mmHg 58%
13:00 +12°C° 0 mm 10 mps 751 mmHg 54%
14:00 +13°C° 0 mm 10 mps 752 mmHg 51%
15:00 +13°C° 0 mm 9 mps 752 mmHg 52%
16:00 +12°C° 0 mm 7 mps 753 mmHg 54%
17:00 +13°C° 0 mm 6 mps 753 mmHg 56%
18:00 +12°C° 0 mm 5 mps 754 mmHg 61%
19:00 +11°C° 0 mm 3 mps 754 mmHg 67%
20:00 +10°C° 0 mm 2 mps 755 mmHg 72%
21:00 +10°C° 0 mm 2 mps 755 mmHg 74%
22:00 +10°C° 0 mm 2 mps 755 mmHg 76%
23:00 +9°C° 0 mm 3 mps 756 mmHg 78%

21 April, Wednesday

Time Temperature Precipitation Wind Pressure Humidity
00:00 +9°C° 0 mm 3 mps 756 mmHg 80%
01:00 +8°C° 0 mm 3 mps 756 mmHg 82%
02:00 +8°C° 0 mm 3 mps 756 mmHg 85%
03:00 +7°C° 0 mm 3 mps 756 mmHg 86%
04:00 +7°C° 0 mm 3 mps 756 mmHg 87%
05:00 +6°C° 0 mm 2 mps 757 mmHg 89%
06:00 +8°C° 0 mm 3 mps 757 mmHg 81%
07:00 +10°C° 0 mm 3 mps 757 mmHg 74%
08:00 +11°C° 0 mm 3 mps 758 mmHg 67%
09:00 +13°C° 0 mm 3 mps 758 mmHg 60%
10:00 +14°C° 0 mm 3 mps 758 mmHg 53%
11:00 +17°C° 0 mm 3 mps 759 mmHg 46%
12:00 +17°C° 0 mm 4 mps 759 mmHg 44%
13:00 +18°C° 0 mm 4 mps 759 mmHg 42%
14:00 +19°C° 0 mm 4 mps 759 mmHg 39%
15:00 +18°C° 0 mm 4 mps 759 mmHg 45%
16:00 +17°C° 0 mm 4 mps 759 mmHg 50%
17:00 +15°C° 0 mm 5 mps 759 mmHg 56%
18:00 +14°C° 0 mm 4 mps 760 mmHg 61%
19:00 +13°C° 0 mm 4 mps 760 mmHg 67%
20:00 +11°C° 0 mm 4 mps 761 mmHg 73%
21:00 +11°C° 0 mm 3 mps 761 mmHg 72%
22:00 +11°C° 0 mm 3 mps 761 mmHg 72%
23:00 +10°C° 0 mm 3 mps 761 mmHg 72%
Show more

We Need Your Consent

Meteoprog and our Service Providers may store and access personal data such as cookies, device identifiers or other similar technologies on your device and process such data to personalise content and ads, as well as provide social media features and to analyse the traffic.

  • Store and/or access information on your device

    Cookies, device identifiers or other information can be stored or accessed on your device for the purposes indicated above.

  • Personalised ads and content, ad and content measurement, audience insights, and products development

    Ads and content can be personalised based on a profile. More data can be added to better personalise ads and content. Ad and content performance can be measured. Insights about the audience who saw the ads and content can be derived. Such data can be used to develop or improve user’s experience, systems and software.

By clicking ‘I Agree’ you will allow the use of indicated cookies, device identifiers, web beacons or other similar technologies. Your settings can be changed in the browser on your device.

For certain purposes, legitimate interests may be relied on, rather than consent. You can read more about this in our Privacy and Cookie Policy.